カタログに戻る

IUS R/B(2)

運用中MEO
NORAD 13970·ROCKET BODY·🇺🇸 United States

打ち上げ Apr 4, 1983 から Cape Canaveral Space Force Station

Loading…

次のパス (今後24時間)

TLE

最新Source: Space-Track

元期: Sep 14, 2026, 06:50 UTC

1 13970U 83026C   26257.28539102 -.00000130  00000-0  00000-0 0  9996
2 13970   4.6942  36.2918 1918297 220.2012 174.6312  1.32157011209738

AllMySatでIUS R/B(2)をリアルタイム追跡

Download on the App Store